星链-30535 (STARLINK-30535 )

导读

STARLINK-30535是美国太空探索技术公司Starlink星链计划中的一颗卫星,于2023年10月5日08:00发射升空。星链计划旨在构建全球卫星互联网星座,为全球提供高速低延迟网络服务,该卫星的发射进一步扩充了星链星座的在轨卫星规模,推进了星座组网进程。

Basic Information
目录编号:
58001
目录名称:
STARLINK-30535
国际标识:
2023-153L
轨道中心:
EARTH
卫星名称:
星链-30535
卫星全名:
星链-30535 (STARLINK-30535 )
卫星状态:
在轨 (已飞行1072 天)
发射日期:
2023-10-05 UTC
国别 :
美国 (US)
星等 :
--
This satellite is enrolled in the Space Conjunction Data Service (SCDS) and the current flight risk assessment level is: High Risk
Orbit Information
数据来源 国际轨道数据
星历时间: 2026-09-11T06:47:52+0800
16小时前
查看轨道信息
半长轴: 6861.108km
偏心率: 0.0000619
轨道倾角: 43.001°
近地点辐角 248.212°
升交点赤经 100.448°
平近点角 111.866°
近地点: 482.546km
远地点: 483.396km
周期: 94.265分钟
每日圈数: 15.276061
Detailed Information
固有亮度:
5
最大亮度:
0.3
卫星平台:
Starlink v2.0 mini
覆盖范围:
全球
运营商:
太空探索技术公司
运营商所在国:
美国
制造商(研发单位):
太空探索技术公司
制造商所在国:
美国
使用方式:
暂无
Satellite Introduction
星链(Starlink)计划是由太空探索技术公司(SpaceX)提出的一个巨型低轨卫星互联网星座项目,计划在2019年至2024年间在太空搭建由约1.2万颗卫星组成的“星链”网络,其中1584颗将部署在地球上空550千米处的近地轨道,并从2020年开始工作。该卫星仍在工作。
2D Orbit Map
3D Orbit Map
Orbit Altitude Analysis Chart
Orbit Inclination Analysis Chart
Orbit Comprehensive Analysis Chart
View Comprehensive Chart
Conjunction Data List
Event ID Objects TCA Miss Dist (km) Collision Risk Probability Collision Risk Index (CRI) Action
CDM_260913-075105-610905-800121
2026-09-13T
07:51:01+0000
0.275 km
中距离
4.351497E-4 高风险 0.88
CDM_260913-213005-800106-192121
2026-09-13T
21:30:51+0000
0.316 km
远距离
3.952998E-4 高风险 0.87
CDM_260913-092505-610905-800121
2026-09-13T
09:25:11+0000
0.855 km
远距离
2.912614E-5 中风险 0.64
CDM_260910-084605-800106-192121
2026-09-10T
08:46:33+0000
1.385 km
极远距离
6.654629E-6 低风险 0.51
CDM_260913-061605-610905-800121
2026-09-13T
06:16:52+0000
1.336 km
极远距离
6.296968E-6 低风险 0.51
CDM_260912-084504-378405-800122
SNUGLITE (43784)
2026-09-12T
08:45:11+0000
1.627 km
极远距离
4.930719E-6 低风险 0.49
CDM_260913-195605-800106-192121
2026-09-13T
19:56:42+0000
1.974 km
极远距离
2.301827E-6 低风险 0.42
CDM_260913-105905-610905-800121
2026-09-13T
10:59:20+0000
1.960 km
极远距离
1.995985E-6 低风险 0.41
CDM_260913-230505-800106-192121
2026-09-13T
23:05:00+0000
2.287 km
极远距离
1.640889E-6 低风险 0.39
CDM_260911-145205-800106-395121
2026-09-11T
14:52:27+0000
2.177 km
极远距离
1.560981E-6 低风险 0.39
Miss Distance Evolution Trend with All Objects
Collision Probability Evolution Trend with All Objects